GMMN

Casablanca/Mohammed V International Airport

Airport
ICAO code
GMMN
IATA Code
CMN
Summary
ICAO Region
AFI
ICAO Territory
Location

Casablanca, Grand Casablanca

Serving
Casablanca
Elevation
656 ft
Coordinates
33° 22' 4" N , 7° 35' 32" W
KCC
Metar
GMMN 270400Z 01011KT 8000 -RA FEW008 BKN026 10/07 Q1020 NOSIG

International airport serving Casablanca.

Climatology

Warm mediterranean climate (Köppen climate classification Csa)

Runways

Designator Length Width Surface Rops
17L/35R 3720 45 ASP Yes/Yes
17R/35L 3720 45 ASP Yes/Yes

Airport map

Aerial View

Airport accidents

SKYbrary Partners:

Safety knowledge contributed by: